EW1587 Weather Reports


time (UTC)temp
F
wind
direction
speed
knots
gust
knots
rain 1hr
in
rain 24hr
in
rain mn
in
humidity
%
barometer
mb
20260503021034 58 172 0.9 4.3 0.00 0.00 0.00 46 1009.4
20260503020537 58 193 0.9 3.5 0.00 0.00 0.00 46 1009.5
20260503020034 58 195 0.9 3.5 0.00 0.00 0.00 46 1009.6
20260503015533 58 214 1.7 3.5 0.00 0.00 0.00 46 1009.7
20260503015032 58 177 0.9 2.6 0.00 0.00 0.00 46 1009.7
20260503014531 58 185 0.9 1.7 0.00 0.00 0.00 46 1009.8
20260503014030 58 179 0.9 2.6 0.00 0.00 0.00 46 1009.9
20260503013531 58 172 0.0 1.7 0.00 0.00 0.00 46 1009.9
20260503013030 59 174 0.0 1.7 0.00 0.00 0.00 46 1010.0
20260503012530 59 160 0.0 1.7 0.00 0.00 0.00 45 1010.1
20260503012028 59 179 0.0 1.7 0.00 0.00 0.00 45 1010.1
20260503011528 59 221 0.9 4.3 0.00 0.00 0.00 44 1010.1
20260503011027 59 240 1.7 7.8 0.00 0.00 0.00 44 1010.3
20260503010530 60 253 2.6 8.7 0.00 0.00 0.00 44 1010.4
20260503010029 59 261 4.3 8.7 0.00 0.00 0.00 45 1010.4
20260503005526 60 278 3.5 13.0 0.00 0.00 0.00 46 1010.5
20260503005028 60 278 8.7 18.2 0.00 0.00 0.00 46 1010.7
20260503004523 60 287 8.7 18.2 0.00 0.00 0.00 44 1010.9
20260503004023 60 290 9.6 17.4 0.00 0.00 0.00 43 1011.2
20260503003523 61 284 9.6 18.2 0.00 0.00 0.00 42 1011.3
20260503003023 61 290 7.8 18.2 0.00 0.00 0.00 42 1011.2
20260503002523 61 288 13.0 19.1 0.00 0.00 0.00 41 1011.1
20260503002023 62 288 13.0 20.0 0.00 0.00 0.00 37 1011.1
20260503001523 62 295 10.4 20.0 0.00 0.00 0.00 36 1011.2
20260503001022 62 287 10.4 18.2 0.00 0.00 0.00 36 1011.1
20260503000522 62 283 6.1 15.6 0.00 0.00 0.00 35 1011.0
20260503000022 63 284 7.0 17.4 0.00 0.00 0.00 36 1011.1
20260502235521 63 266 8.7 33.9 0.00 0.00 0.00 33 1011.1
20260502235022 63 248 13.9 33.9 0.00 0.00 0.00 35 1011.1
20260502234525 63 285 7.8 13.9 0.00 0.00 0.00 37 1011.1
20260502234120 63 290 5.2 12.2 0.00 0.00 0.00 36 1011.1
20260502233519 63 290 5.2 13.9 0.00 0.00 0.00 33 1011.0
20260502233020 63 285 9.6 13.9 0.00 0.00 0.00 34 1011.1
20260502232518 63 278 7.0 33.0 0.00 0.00 0.00 35 1011.1
20260502232018 63 270 8.7 33.0 0.00 0.00 0.00 33 1011.1
20260502231523 64 248 6.1 22.6 0.00 0.00 0.00 33 1011.2
20260502231018 64 274 4.3 22.6 0.00 0.00 0.00 32 1011.2
20260502230517 64 325 4.3 15.6 0.00 0.00 0.00 34 1011.2
20260502230019 64 294 8.7 26.9 0.00 0.00 0.00 33 1011.1
20260502225519 64 240 17.4 26.9 0.00 0.00 0.00 35 1011.2
20260502225016 64 294 11.3 18.2 0.00 0.00 0.00 33 1011.2
20260502224514 64 308 8.7 17.4 0.00 0.00 0.00 32 1011.2
20260502224014 64 281 11.3 17.4 0.00 0.00 0.00 34 1011.1
20260502223515 64 298 10.4 15.6 0.00 0.00 0.00 35 1011.2
20260502223012 65 302 8.7 13.0 0.00 0.00 0.00 34 1011.2
20260502222512 65 266 7.0 15.6 0.00 0.00 0.00 33 1011.2
20260502222010 65 250 10.4 15.6 0.00 0.00 0.00 33 1011.2
20260502221510 65 294 5.2 13.0 0.00 0.00 0.00 35 1011.3
20260502221011 65 291 5.2 15.6 0.00 0.00 0.00 36 1011.3
20260502220509 64 284 7.8 13.0 0.00 0.00 0.00 36 1011.3
20260502220012 64 262 6.1 12.2 0.00 0.00 0.00 35 1011.4
20260502215508 65 287 8.7 13.9 0.00 0.00 0.00 36 1011.4
20260502215007 65 275 8.7 13.0 0.00 0.00 0.00 36 1011.4
20260502214517 65 292 7.8 12.2 0.00 0.00 0.00 37 1011.5
20260502214006 64 280 6.1 14.8 0.00 0.00 0.00 35 1011.6
20260502213505 64 299 8.7 20.9 0.00 0.00 0.00 35 1011.6
20260502213005 64 262 8.7 20.9 0.00 0.00 0.00 36 1011.8
20260502212505 65 255 13.0 19.1 0.00 0.00 0.00 35 1011.7
20260502212003 65 262 12.2 17.4 0.00 0.00 0.00 34 1011.8
20260502211507 65 264 7.8 21.7 0.00 0.00 0.00 35 1012.1
20260502211001 65 275 13.0 21.7 0.00 0.00 0.00 35 1012.0
20260502210500 64 267 8.7 16.5 0.00 0.00 0.00 34 1012.2
20260502210059 65 271 11.3 17.4 0.00 0.00 0.00 36 1012.3
20260502205557 64 263 9.6 20.0 0.00 0.00 0.00 34 1012.4
20260502205057 64 281 9.6 21.7 0.00 0.00 0.00 35 1012.6
20260502204607 64 282 12.2 21.7 0.00 0.00 0.00 35 1012.6
20260502204057 64 311 9.6 20.0 0.00 0.00 0.00 33 1012.7
20260502203553 64 275 11.3 20.9 0.00 0.00 0.00 34 1012.9
20260502203053 64 294 14.8 20.9 0.00 0.00 0.00 33 1013.0
20260502202551 64 267 11.3 21.7 0.00 0.00 0.00 34 1013.0
20260502202052 64 267 12.2 20.9 0.00 0.00 0.00 35 1013.1
20260502201551 64 261 8.7 19.1 0.00 0.00 0.00 36 1013.3
20260502201049 63 284 7.0 19.1 0.00 0.00 0.00 35 1013.5
20260502200548 64 264 11.3 19.1 0.00 0.00 0.00 35 1013.5
20260502200048 64 290 12.2 19.1 0.00 0.00 0.00 34 1013.6
20260502195547 64 277 10.4 18.2 0.00 0.00 0.00 34 1013.8
20260502195048 63 278 11.3 18.2 0.00 0.00 0.00 36 1013.9
20260502194544 63 276 8.7 16.5 0.00 0.00 0.00 35 1013.9
20260502194045 63 281 7.8 15.6 0.00 0.00 0.00 35 1014.0
20260502193543 63 277 6.1 20.9 0.00 0.00 0.00 36 1014.2
20260502193049 62 292 11.3 20.9 0.00 0.00 0.00 35 1014.2
20260502192543 63 295 10.4 18.2 0.00 0.00 0.00 35 1014.3
20260502192040 63 257 10.4 15.6 0.00 0.00 0.00 36 1014.2
20260502191544 62 278 6.1 18.2 0.00 0.00 0.00 37 1014.5
20260502191037 62 288 10.4 18.2 0.00 0.00 0.00 36 1014.6
20260502190537 61 284 9.6 15.6 0.00 0.00 0.00 36 1014.7
20260502190035 61 278 8.7 15.6 0.00 0.00 0.00 37 1014.9
20260502185533 61 258 7.8 13.9 0.00 0.00 0.00 39 1014.9
20260502185032 60 274 7.8 14.8 0.00 0.00 0.00 37 1015.1
20260502184535 60 273 8.7 14.8 0.00 0.00 0.00 37 1015.2
20260502184030 60 288 9.6 20.9 0.00 0.00 0.00 38 1015.3
20260502183530 60 291 13.9 20.9 0.00 0.00 0.00 37 1015.4
20260502183030 60 248 8.7 16.5 0.00 0.00 0.00 36 1015.5
20260502182530 60 276 7.8 16.5 0.00 0.00 0.00 37 1015.6
20260502182028 60 267 7.0 13.9 0.00 0.00 0.00 36 1015.7
20260502181529 60 312 6.1 14.8 0.00 0.00 0.00 37 1015.7
20260502181026 59 280 5.2 9.6 0.00 0.00 0.00 37 1015.9
20260502180524 59 249 5.2 12.2 0.00 0.00 0.00 38 1016.0
20260502170509 56 264 6.1 13.9 0.00 0.00 0.00 39 1017.2
20260502164004 55 270 8.7 12.2 0.00 0.00 0.00 40 1017.5
20260502163503 55 290 6.1 13.0 0.00 0.00 0.00 39 1017.7
20260502163001 55 288 7.0 12.2 0.00 0.00 0.00 40 1017.7
20260502162601 54 291 5.2 12.2 0.00 0.00 0.00 42 1017.7
20260502162059 54 274 6.1 13.9 0.00 0.00 0.00 41 1017.9
20260502161600 53 271 8.7 13.9 0.00 0.00 0.00 42 1017.9
20260502161059 53 279 7.0 15.6 0.00 0.00 0.00 41 1018.0
20260502160558 53 260 7.8 15.6 0.00 0.00 0.00 42 1018.1
20260502152047 51 290 9.6 13.9 0.00 0.00 0.00 45 1018.7
20260502151551 51 283 6.1 13.9 0.00 0.00 0.00 47 1018.7
20260502151048 51 292 7.8 14.8 0.00 0.00 0.00 44 1018.8
20260502150544 51 278 10.4 14.8 0.00 0.00 0.00 46 1018.9
20260502130521 42 290 7.0 10.4 0.00 0.00 0.00 66 1019.6
20260502123518 41 288 3.5 7.0 0.00 0.00 0.00 69 1019.7
20260502123018 41 275 2.6 5.2 0.00 0.00 0.00 70 1019.6
20260502122518 40 302 2.6 5.2 0.00 0.00 0.00 70 1019.6
20260502122018 40 288 3.5 6.1 0.00 0.00 0.00 70 1019.7
20260502121534 40 287 4.3 6.1 0.00 0.00 0.00 71 1019.6
20260502121018 40 284 3.5 5.2 0.00 0.00 0.00 72 1019.6
20260502120519 40 287 3.5 5.2 0.00 0.00 0.00 72 1019.7
20260502115517 39 295 3.5 5.2 0.00 0.00 0.00 72 1019.7
20260502115017 39 298 3.5 6.1 0.00 0.00 0.00 71 1019.6
20260502114516 39 303 3.5 6.1 0.00 0.00 0.00 73 1019.6
20260502114017 38 288 3.5 7.0 0.00 0.00 0.00 74 1019.6
20260502113517 38 300 3.5 7.0 0.00 0.00 0.00 73 1019.6
20260502113116 38 298 2.6 5.2 0.00 0.00 0.00 75 1019.6
20260502112514 38 294 2.6 5.2 0.00 0.00 0.00 76 1019.5
20260502112016 38 276 2.6 6.1 0.00 0.00 0.00 78 1019.6
20260502111514 37 284 2.6 6.1 0.00 0.00 0.00 75 1019.5
20260502111013 37 280 1.7 5.2 0.00 0.00 0.00 74 1019.4
20260502110514 37 293 1.7 4.3 0.00 0.00 0.00 75 1019.5
20260502110016 37 290 2.6 4.3 0.00 0.00 0.00 75 1019.5
20260502105514 37 280 2.6 4.3 0.00 0.00 0.00 75 1019.5
20260502105016 37 287 2.6 3.5 0.00 0.00 0.00 75 1019.5
20260502104512 37 293 1.7 4.3 0.00 0.00 0.00 74 1019.5
20260502104012 37 294 1.7 4.3 0.00 0.00 0.00 74 1019.5
20260502103512 37 285 1.7 3.5 0.00 0.00 0.00 74 1019.5
20260502103012 37 290 1.7 3.5 0.00 0.00 0.00 73 1019.5
20260502102511 37 302 1.7 3.5 0.00 0.00 0.00 73 1019.5
20260502102012 37 287 1.7 3.5 0.00 0.00 0.00 73 1019.6
20260502101513 37 315 1.7 5.2 0.00 0.00 0.00 72 1019.5
20260502101011 37 291 1.7 6.1 0.00 0.00 0.00 73 1019.5
20260502100511 37 282 2.6 6.1 0.00 0.00 0.00 73 1019.5
20260502091506 38 295 2.6 5.2 0.00 0.00 0.00 72 1019.3
20260502091003 38 290 3.5 5.2 0.00 0.00 0.00 72 1019.4
20260502090503 38 290 2.6 5.2 0.00 0.00 0.00 73 1019.3
20260502071050 39 288 1.7 4.3 0.00 0.00 0.00 66 1019.6
20260502070550 39 284 2.6 4.3 0.00 0.00 0.00 68 1019.7
20260502070049 39 293 1.7 3.5 0.00 0.00 0.00 68 1019.7
20260502065548 39 290 1.7 3.5 0.00 0.00 0.00 68 1019.7
20260502065047 39 284 2.6 3.5 0.00 0.00 0.00 68 1019.7
20260502064546 39 291 0.9 2.6 0.00 0.00 0.00 68 1019.8
20260502064044 39 284 0.0 2.6 0.00 0.00 0.00 65 1019.8
20260502063543 39 281 0.9 2.6 0.00 0.00 0.00 64 1019.9
20260502063047 39 271 0.0 2.6 0.00 0.00 0.00 64 1019.9
20260502062543 39 269 0.9 1.7 0.00 0.00 0.00 63 1019.9
20260502062042 39 276 0.0 2.6 0.00 0.00 0.00 64 1019.8
20260502061542 40 266 0.9 2.6 0.00 0.00 0.00 63 1019.8
20260502061040 40 280 0.9 2.6 0.00 0.00 0.00 63 1019.8
20260502060540 40 277 0.0 1.7 0.00 0.00 0.00 62 1019.9
20260502060038 40 276 0.0 1.7 0.00 0.00 0.00 61 1019.8
20260502055539 40 261 0.9 2.6 0.00 0.00 0.00 61 1019.9
20260502055037 41 274 0.0 2.6 0.00 0.00 0.00 61 1019.8
20260502054541 41 270 0.9 2.6 0.00 0.00 0.00 61 1019.9
20260502054036 41 276 0.9 3.5 0.00 0.00 0.00 61 1019.8
20260502053532 42 266 0.9 4.3 0.00 0.00 0.00 61 1019.9
20260502053036 42 280 0.9 4.3 0.00 0.00 0.00 61 1019.9
20260502052530 42 281 2.6 4.3 0.00 0.00 0.00 58 1020.0
20260502052031 43 292 2.6 4.3 0.00 0.00 0.00 57 1020.0
20260502051527 43 271 1.7 4.3 0.00 0.00 0.00 55 1020.0
20260502051026 43 290 2.6 5.2 0.00 0.00 0.00 53 1020.0
20260502050527 43 290 2.6 5.2 0.00 0.00 0.00 53 1020.0
20260502050031 43 285 2.6 6.1 0.00 0.00 0.00 52 1020.0
20260502045525 43 288 3.5 6.1 0.00 0.00 0.00 52 1020.0
20260502045025 43 290 3.5 4.3 0.00 0.00 0.00 54 1020.0
20260502044525 43 287 1.7 4.3 0.00 0.00 0.00 56 1019.9
20260502044023 43 288 1.7 3.5 0.00 0.00 0.00 57 1019.9
20260502043523 43 298 2.6 4.3 0.00 0.00 0.00 55 1019.9
20260502043023 43 290 2.6 4.3 0.00 0.00 0.00 56 1019.9
20260502042524 43 284 1.7 3.5 0.00 0.00 0.00 59 1019.9
20260502042025 43 280 0.9 3.5 0.00 0.00 0.00 59 1019.9
20260502041523 43 264 0.0 4.3 0.00 0.00 0.00 58 1019.9
20260502041024 43 298 2.6 4.3 0.00 0.00 0.00 59 1020.0
20260502040525 43 297 2.6 4.3 0.00 0.00 0.00 57 1020.0
20260502040023 43 290 0.9 2.6 0.00 0.00 0.00 58 1019.9
20260502035523 43 281 0.0 1.7 0.00 0.00 0.00 60 1019.9
20260502035023 43 285 0.0 1.7 0.00 0.00 0.00 59 1019.9
20260502034523 43 273 0.0 1.7 0.00 0.00 0.00 58 1019.9
20260502034023 44 283 0.0 0.9 0.00 0.00 0.00 55 1019.9
20260502033522 44 280 0.0 0.9 0.00 0.00 0.00 55 1019.9
20260502033024 44 281 0.0 1.7 0.00 0.00 0.00 54 1019.9
20260502032520 44 271 0.0 1.7 0.00 0.00 0.00 55 1019.9
20260502032020 44 269 0.0 1.7 0.00 0.00 0.00 55 1019.8
20260502031522 44 281 0.0 1.7 0.00 0.00 0.00 54 1019.9
20260502031021 44 277 0.0 0.9 0.00 0.00 0.00 52 1019.9
20260502030521 44 276 0.0 0.9 0.00 0.00 0.00 51 1019.9
20260502030021 44 262 0.0 0.9 0.00 0.00 0.00 51 1019.9
20260502025520 44 260 0.0 0.9 0.00 0.00 0.00 50 1019.9
20260502025019 44 264 0.9 0.9 0.00 0.00 0.00 51 1019.9
20260502024520 44 269 0.0 0.0 0.00 0.00 0.00 52 1019.9
20260502024020 44 263 0.0 0.9 0.00 0.00 0.00 53 1019.9
20260502023519 45 257 0.0 0.9 0.00 0.00 0.00 54 1019.9
20260502023019 45 281 0.0 0.9 0.00 0.00 0.00 56 1019.9
20260502022518 45 281 0.0 0.9 0.00 0.00 0.00 54 1019.9
20260502022020 45 283 0.0 1.7 0.00 0.00 0.00 52 1019.9
20260502021518 45 276 0.0 1.7 0.00 0.00 0.00 51 1019.8